Date String (YYYY-MM-DD hh:mm:ss) UTC,Instrument flags,Ambient pressure (hPa),Sample flow (lpm),Bypass flow (lpm),Sample temperature (°C),Ambient temperature (°C),ASC tube jacket temperature (°C),LED temperature (°C),Box temperature (°C),Sample RH (%),Span deviation,Mass concentration (μg/m³),Mass concentration (μg/m³),Mass concentration (μg/m³)
DateTimeUTC,F1_M11,P_M11,Q1_M11,Q2_M11,T1_M11,T2_M11,T3_M11,T4_M11,T5_M11,U1_M11,ZSPAN_M11,X0_M11,X2_M11,X1_M11
2022-02-22 03:00:00,,0819.9,4.99,0.00,22.5,23.1,00.0,31.4,24.3,06.1,-000.1,0009.04,0003.91,0003.37
2022-02-22 03:01:00,,0819.9,4.99,0.00,22.5,22.9,00.0,31.4,24.4,06.1,0000.0,0008.87,0003.92,0003.36
2022-02-22 03:02:00,,0819.8,5.01,0.00,22.5,22.6,00.0,31.4,24.3,06.1,0000.0,0009.34,0003.95,0003.35
2022-02-22 03:03:00,,0819.9,5.00,0.00,22.4,22.3,00.0,31.4,24.1,06.1,0000.0,0009.15,0003.92,0003.34
2022-02-22 03:04:00,,0819.9,4.99,0.00,22.4,22.0,00.0,31.4,24.0,06.2,0000.0,0008.74,0003.92,0003.33
2022-02-22 03:05:00,,0819.9,5.01,0.00,22.3,21.6,00.0,31.4,23.9,06.2,0000.0,0008.96,0003.94,0003.34
2022-02-22 03:06:00,,0819.9,5.00,0.00,22.2,21.3,00.0,31.3,23.8,06.2,0000.0,0008.80,0003.96,0003.34
2022-02-22 03:07:00,,0819.9,4.99,0.00,22.2,21.3,00.0,31.3,23.7,06.2,0000.0,0008.74,0003.97,0003.32
2022-02-22 03:08:00,,0819.9,5.00,0.00,22.2,21.7,00.0,31.3,23.8,06.2,0000.0,0008.70,0003.95,0003.31
2022-02-22 03:09:00,,0819.9,5.00,0.00,22.3,22.4,00.0,31.3,24.1,06.1,0000.0,0008.59,0003.92,0003.31
2022-02-22 03:10:00,,0820.0,5.00,0.00,22.4,23.1,00.0,31.4,24.3,06.0,0000.0,0008.93,0003.93,0003.29
2022-02-22 03:11:00,,0820.0,5.00,0.00,22.6,23.3,00.0,31.4,24.5,05.9,0000.0,0009.70,0003.95,0003.28
2022-02-22 03:12:00,,0819.9,4.99,0.00,22.6,23.0,00.0,31.4,24.4,05.9,0000.0,0009.54,0003.90,0003.27
2022-02-22 03:13:00,,0819.9,5.02,0.00,22.5,22.6,00.0,31.4,24.3,05.9,0000.0,0009.14,0003.85,0003.25
2022-02-22 03:14:00,,0819.9,5.00,0.00,22.5,22.3,00.0,31.4,24.2,05.8,0000.0,0009.66,0003.84,0003.25
2022-02-22 03:15:00,,0820.0,5.00,0.00,22.4,22.0,00.0,31.4,24.1,05.8,0000.0,0009.68,0003.83,0003.24
2022-02-22 03:16:00,,0819.9,5.00,0.00,22.4,21.8,00.0,31.4,24.0,05.9,0000.0,0009.41,0003.81,0003.23
2022-02-22 03:17:00,,0819.9,4.99,0.00,22.3,21.5,00.0,31.4,23.9,05.9,0000.0,0009.12,0003.78,0003.22
2022-02-22 03:18:00,,0820.0,5.00,0.00,22.2,21.2,00.0,31.3,23.8,05.9,0000.0,0009.50,0003.76,0003.21
2022-02-22 03:19:00,,0820.0,5.00,0.00,22.2,21.0,00.0,31.3,23.7,06.0,0000.0,0009.50,0003.74,0003.21
2022-02-22 03:20:00,,0820.0,5.00,0.00,22.2,21.7,00.0,31.3,23.9,06.0,0000.0,0009.53,0003.74,0003.20
2022-02-22 03:21:00,,0820.0,4.99,0.00,22.3,22.6,00.0,31.4,24.1,05.9,0000.0,0009.67,0003.69,0003.20
2022-02-22 03:22:00,,0820.1,4.99,0.00,22.5,23.0,00.0,31.4,24.4,05.8,0000.0,0008.81,0003.68,0003.21
2022-02-22 03:23:00,,0820.1,5.01,0.00,22.5,22.6,00.0,31.4,24.3,05.8,0000.0,0009.20,0003.72,0003.21
2022-02-22 03:24:00,,0820.1,5.00,0.00,22.4,22.3,00.0,31.4,24.2,05.8,0000.0,0009.26,0003.75,0003.21
2022-02-22 03:25:00,,0820.1,5.00,0.00,22.4,22.1,00.0,31.4,24.1,05.8,0000.0,0008.90,0003.73,0003.21
2022-02-22 03:26:00,,0820.1,5.00,0.00,22.3,21.8,00.0,31.3,24.0,05.8,0000.0,0008.83,0003.71,0003.21
2022-02-22 03:27:00,,0820.1,4.99,0.00,22.3,21.4,00.0,31.3,23.9,05.8,0000.0,0008.82,0003.68,0003.21
2022-02-22 03:28:00,,0820.0,4.99,0.00,22.2,21.0,00.0,31.3,23.7,05.8,0000.0,0008.75,0003.67,0003.21
2022-02-22 03:29:00,,0820.0,5.02,0.00,22.1,20.8,00.0,31.2,23.6,05.8,0000.0,0008.38,0003.67,0003.22
2022-02-22 03:30:00,,0820.0,5.00,0.00,22.1,21.4,00.0,31.3,23.7,05.8,0000.0,0008.25,0003.70,0003.23
2022-02-22 03:31:00,,0819.9,4.99,0.00,22.2,22.4,00.0,31.3,24.0,05.8,0000.0,0008.31,0003.74,0003.23
2022-02-22 03:32:00,,0819.9,5.00,0.00,22.4,23.1,00.0,31.3,24.3,05.8,0000.0,0008.22,0003.75,0003.24
2022-02-22 03:33:00,,0819.9,5.00,0.00,22.5,23.1,00.0,31.4,24.4,05.7,0000.0,0008.44,0003.76,0003.25
2022-02-22 03:34:00,,0820.0,5.01,0.00,22.5,22.6,00.0,31.4,24.3,05.8,0000.0,0008.15,0003.77,0003.26
2022-02-22 03:35:00,,0819.9,5.00,0.00,22.4,22.1,00.0,31.3,24.2,05.8,0000.0,0008.11,0003.77,0003.27
2022-02-22 03:36:00,,0820.0,5.00,0.00,22.4,21.7,00.0,31.3,24.0,05.8,0000.0,0007.78,0003.76,0003.28
2022-02-22 03:37:00,,0820.0,5.01,0.00,22.3,21.4,00.0,31.3,23.9,05.8,0000.0,0007.69,0003.80,0003.28
2022-02-22 03:38:00,,0820.1,5.01,0.00,22.2,21.4,00.0,31.3,23.8,05.8,0000.0,0007.82,0003.90,0003.29
2022-02-22 03:39:00,,0820.1,4.99,0.00,22.1,21.3,00.0,31.3,23.7,05.8,0000.0,0008.05,0003.97,0003.29
2022-02-22 03:40:00,,0820.1,5.00,0.00,22.1,21.3,00.0,31.3,23.6,05.8,0000.0,0008.06,0003.99,0003.30
2022-02-22 03:41:00,,0820.1,5.01,0.00,22.2,22.0,00.0,31.3,23.8,05.8,0000.0,0008.13,0004.01,0003.31
2022-02-22 03:42:00,,0820.2,5.00,0.00,22.3,22.8,00.0,31.3,24.1,05.7,0000.0,0008.28,0004.01,0003.30
2022-02-22 03:43:00,,0820.2,5.00,0.00,22.5,23.3,00.0,31.3,24.4,05.7,0000.0,0008.19,0003.99,0003.30
2022-02-22 03:44:00,,0820.2,4.99,0.00,22.5,23.1,00.0,31.4,24.4,05.7,0000.0,0008.01,0004.00,0003.29
2022-02-22 03:45:00,,0820.2,5.01,0.00,22.5,22.7,00.0,31.4,24.3,05.7,0000.0,0008.33,0004.00,0003.29
2022-02-22 03:46:00,,0820.2,5.01,0.00,22.4,22.4,00.0,31.4,24.1,05.6,0000.0,0008.39,0003.96,0003.29
2022-02-22 03:47:00,,0820.2,4.99,0.00,22.3,22.1,00.0,31.4,23.9,05.6,0000.0,0008.42,0003.97,0003.29
2022-02-22 03:48:00,,0820.1,5.00,0.00,22.2,21.8,00.0,31.3,23.8,05.7,0000.0,0008.34,0003.95,0003.29
2022-02-22 03:49:00,,0820.0,4.99,0.00,22.2,21.5,00.0,31.3,23.6,05.7,0000.0,0008.19,0003.88,0003.29
2022-02-22 03:50:00,,0820.1,5.00,0.00,22.1,21.7,00.0,31.3,23.6,05.7,0000.0,0007.99,0003.82,0003.28
2022-02-22 03:51:00,,0820.2,5.01,0.00,22.2,22.4,00.0,31.3,23.9,05.7,0000.0,0008.56,0003.81,0003.27
2022-02-22 03:52:00,,0820.3,5.00,0.00,22.4,23.1,00.0,31.4,24.2,05.6,0000.0,0009.20,0003.81,0003.27
2022-02-22 03:53:00,,0820.3,5.00,0.00,22.5,23.3,00.0,31.4,24.4,05.6,0000.0,0009.71,0003.80,0003.27
2022-02-22 03:54:00,,0820.3,4.99,0.00,22.5,22.9,00.0,31.4,24.3,05.6,0000.0,0010.14,0003.85,0003.29
2022-02-22 03:55:00,,0820.3,5.01,0.00,22.5,22.5,00.0,31.4,24.2,05.6,0000.0,0009.99,0003.84,0003.29
2022-02-22 03:56:00,,0820.3,5.00,0.00,22.4,22.2,00.0,31.4,24.0,05.6,0000.0,0010.05,0003.84,0003.30
2022-02-22 03:57:00,,0820.3,5.00,0.00,22.3,21.9,00.0,31.4,23.9,05.6,0000.0,0010.32,0003.86,0003.30
2022-02-22 03:58:00,,0820.3,4.99,0.00,22.2,21.7,00.0,31.4,23.7,05.7,0000.0,0010.36,0003.86,0003.30
2022-02-22 03:59:00,,0820.4,5.01,0.00,22.1,21.5,00.0,31.3,23.6,05.7,0000.0,0010.48,0003.91,0003.31
